STARLINK-36715, 67716

Orbit data source: Space-Track

STARLINK-36715, 67716 is a payload satellite owned by SpaceX/Seattle (US) in SSO that was launched on Sat, 07 Feb 2026 UTC via an FALCON 9 launch vehicle from the Air Force Western Test Range (AFWTR). Payload-class satellites include a variety of spacecraft equipped with specific instruments for various scientific and technological missions. These include communications satellites like Starlink; space stations such as the ISS; scientific satellites like the Hubble; Earth observation satellites from companies like Planet Labs, Umbra, and HawkEye 360; GPS; miniature CubeSats for education and research; and military/defense satellites.

Loading next visibility...
Identifier
67716, 2026-025Z
Orbit
SSO
Country
Flag of USUS
Related business
Manufacturer
SpaceX/Seattle
Mission
Operational spacecraft
Bus & Motor
STARLINK V2MO, Unknown motor
Mass
575 kg wet, ~530 kg dry
Launch date (UTC)
2026-02-07 (2 months ago)
Launch vehicle
FALCON 9
Launch site
Air Force Western Test Range (AFWTR)
Object type
Payload
Rocket body
Debris
Shape & HBR
Unknown shape, 17.7 m
Radar Cross Section
RCS unknown

Expand to show TLE details & history
Last TLE update: 19 hours ago

TLE from 19 hours ago
0 STARLINK-36715
1 67716U 26025Z   26103.57477555  .00016062  00000-0  49869-3 0  9993
2 67716  97.2867 215.6948 0000555 110.5343 249.5960 15.33450626 11355
Epoch: 2026-04-13T13:47Z
TLE epoch observation values (Epoch: 2026-04-13T13:47:40.607Z)
Latitude
0.00004°
Longitude
167.01218°
Altitude
468.771 km
Speed
7.632 km/s
True Right ascension
14h 22m 46s
True Declination
0° 00' 00"
Sunlit
Object was in full shadow at epoch
Visualization orbit readout
Latitude
Unknown
Longitude
Unknown
Altitude
Unknown
Speed
Unknown
Apparent Right ascension
Unknown
Apparent Declination
Unknown
Sunlit
N/A
Visualization observer readout
Local Sidereal Time
15:10:10
Azimuth
Unknown
Elevation
Unknown
Doppler factor
Unknown
Orbital elements
Apogee altitude
462.849 km
Perigee altitude
462.09 km
Semi-major axis
6,840.606 km
Eccentricity
0.00006
Inclination
97.2867°
RAAN
215.6948°
Arg. of periapsis
110.5343°
True anomaly
249.59004°
Mean anomaly
249.596°
Eccentric anomaly
249.59302°
Mean motion
3.8362 °/min
Orbital period
93.84 mins
BSTAR
0.00049869
Loading maneuver chart data...
Computing Atmospheric mass density...
Loading historical data...
Loading historical data...
Loading historical data...
Loading historical data...
Loading historical data...
Loading historical data...
Loading historical data...

Documentation

Showing up to 5 results
|